SCP
0 0 0 0 0 0 0 0 0 0 0 0 0 0 0 0 0 0 0 0 0 0 0 0 0 0 0 0 0 0 0 0 0 0 0 0 0 0
0 0 0 0 0 0 0 0 0 0 0 0 0 0 0 0 0 0 0 0 0 0 0 0 0 0 0 0 0 0 0 0 0 0 0 0 0 0
0 0 0 0 0 0 0 0 0 0 0 0 0 0 0 0 0 0 0 0 0 0 0 0 0 0 0 0 0 0 0 0 0 0 0 0 0 0
0 0 0 0 0 0 0 0 0 0 0 0 0 0 0 0 0 0 0 0 0 0 0 0 0 0 0 0 0 0 0 0 0 0 0 0 0 0
0 0 0 0 0 0 0 0 0 0 0 0 0 0 0 0 0 0 0 0 0 0 0 0 0 0 0 0 0 0 0 0 0 0 0 0 0 0
0 0 0 0 0 0 0 0 0 0 0 0 0 0 0 0 0 0 0 0 0 0 0 0 0 0 0 0 0 0 0 0 0 0 0 0 0 0
0 0 0 0 0 0 0 0 0 0 0 0 0 0 0 0 0 0 0 0 0 0 0 0 0 0 0 0 0 0 0 0 0 0 0 0 0 0
0 0 0 0 0 0 0 0 0 0 0 0 0 0 0 0 0 0 0 0 0 0 0 0 0 0 0 0 0 0 0 0 0 0 0 0 0 0
0 0 0 0 0 0 0 0 0 0 0 0 0 0 0 0 0 0 0 0 0 0 0 0 0 0 0 0 0 0 0 0 0 0 0 0 0 0
0 0 0 0 0 0 0 0 0 0 0 0 0 0 0 0 0 0 0 0 0 0 0 0 0 0 0 0 0 0 0 0 0 0 0 0 0 0
0 0 0 0 0 0 0 0 0 0 0 0 0 0 0 0 0 0 0 0 0 0 0 0 0 0 0 0 0 0 0 0 0 0 0 0 0 0
0 0 0 0 0 0 0 0 -0 -0 -0 -0 -0 0 0 0 0 0 0 0 0 0 0 0 0 0 0 0 0 0 0 0 0 0 0 0 0 0
0 0 0 0 0 0 0 -0 -0 -0 -0 -0 -0 0 0 0 0 0 0 0 0 0 0 0 0 0 0 0 0 0 0 0 0 0 0 0 0 0
0 0 -0 -0 -0 0 0 0 0 -0 -0 0 0 0 0 0 -0 -0 0 0 0 0 0 0 0 0 0 0 0 0 0 0 0 0 0 0 0 0
-0 0 -0 -0 0 0 -0 -0 -0 0 0 0 0 0 -0 -0 -0 -0 -0 -0 0 0 0 0 0 0 0 0 0 0 0 0 0 0 0 0 0 0
-0 0 -0 -0 -0 -0 -0 -0 0 0 0 0 -0 0 0 0 0 0 0 0 0 0 0 0 0 0 0 0 0 0 0 0 0 0 0 0 0 0
0 0 -0 -0 0 -0 -0 -0 0 0 0 0 0 0 0 0 0 0 0 0 0 0 0 0 0 0 0 0 0 0 0 0 0 0 0 0 0 0
-0 -0 -0 -0 0 -0 -0 -0 -0 0 0 0 0 0 0 0 -0 -0 0 -0 0 0 0 0 0 0 0 0 0 0 -0 -0 0 0 0 0 0 0
-0 -0 -0 0 0 0 -0 -0 -0 -0 0 0 0 0 -0 -0 -0 0 0 0 0 0 0 0 0 0 0 0 0 0 0 -0 -0 -0 0 0 0 0
-0 -0 -0 0 0 0 -0 -0 -0 -0 -0 -0 -0 -0 -0 -0 -0 -0 0 0 0 0 0 0 -0 -0 0 0 -0 0 0 0 0 -0 -0 0 0 0
-0 -0 -0 -0 0 -0 -0 -0 -0 -0 -0 0 0 -0 -0 -0 -0 0 0 0 0 0 0 0 0 0 0 0 -0 0 -0 0 0 0 0 0 0 0
-0 -0 -0 -0 -0 0 0 0 0 0 0 0 0 0 0 0 0 0 0 0 0 0 0 0 0 0 0 0 -0 -0 -0 -0 0 0 0 0 0 0
-0 -0 -0 0 0 0 0 0 0 0 0 0 0 0 0 0 0 0 0 0 0 0 0 0 0 0 0 0 0 -0 0 0 0 -0 0 0 0 0
Wind_Speed_500mb
32 24 30 28 35 38 32 32 25 31 45 38 34 31 34 22 37 25 27 27 39 47 56 60 57 59 61 62 63 62 61 60 59 57 56 56 56 59
33 37 36 38 36 41 41 42 38 38 44 45 39 42 35 34 33 27 32 30 48 46 45 52 56 62 60 60 62 65 66 65 65 64 60 57 58 59
34 37 39 43 42 44 40 42 44 46 58 55 51 45 43 40 41 43 42 46 51 54 58 63 60 57 54 55 61 67 71 71 71 71 69 64 61 61
37 41 45 44 44 47 47 45 46 47 51 58 49 47 50 47 47 46 50 52 49 47 45 48 51 51 50 54 61 61 63 69 74 76 75 76 71 68
46 50 51 51 53 53 49 48 48 51 53 57 61 56 54 53 55 54 51 50 51 53 64 61 63 67 71 73 73 69 67 70 72 74 79 79 80 77
71 59 53 52 53 53 51 54 58 56 53 55 56 51 48 49 52 55 46 41 46 46 49 53 47 46 53 57 58 59 66 66 71 76 80 81 82 83
74 68 50 47 51 53 58 54 49 55 57 57 56 52 47 42 41 42 45 49 54 52 53 54 62 60 51 49 52 57 58 55 58 58 66 74 80 83
75 58 46 52 46 46 43 43 44 49 58 57 67 67 68 67 64 55 55 57 65 63 64 67 63 70 74 75 67 59 60 70 63 61 61 62 66 76
52 51 55 52 52 52 52 55 56 58 59 57 58 58 58 50 48 52 56 60 64 62 58 61 57 63 58 61 62 62 64 73 78 78 67 65 68 68
49 54 53 56 56 54 51 54 51 49 50 51 56 59 56 53 50 56 57 62 64 60 57 67 64 65 62 65 64 65 65 69 70 66 74 82 80 78
56 45 46 52 50 50 52 57 55 52 46 49 51 59 56 53 60 61 68 69 75 74 72 60 59 57 56 57 54 56 58 58 60 64 66 67 70 75
61 56 53 49 49 41 35 35 45 48 54 62 55 57 58 60 53 52 50 57 64 66 58 53 67 60 61 57 48 32 39 45 46 48 50 54 58 62
62 57 50 46 47 55 56 57 58 52 49 48 45 34 30 33 35 37 38 44 49 56 45 42 54 55 59 56 47 46 45 43 39 32 35 37 38 48
54 52 52 55 46 44 39 30 32 36 34 23 26 32 31 31 30 27 30 36 40 52 44 39 44 30 40 44 45 43 35 34 35 39 40 40 39 42
50 48 34 32 35 32 28 29 26 23 26 24 26 29 27 23 25 27 22 28 31 28 29 33 38 39 42 48 45 39 30 37 32 36 38 37 40 37
45 29 30 32 32 21 25 25 22 20 19 20 23 21 20 20 22 18 20 24 24 21 19 20 26 33 40 43 46 54 50 41 41 44 31 35 33 33
33 30 31 33 31 26 28 23 23 24 21 18 19 20 20 21 18 18 21 21 22 18 19 23 21 31 31 33 37 40 42 42 37 38 37 36 29 23
29 28 30 32 32 31 33 30 23 28 28 23 21 21 22 23 20 16 19 19 22 18 21 16 25 28 29 27 25 27 31 36 33 33 30 34 33 23
31 27 29 30 31 30 32 31 33 33 30 24 25 23 22 15 21 22 21 20 20 17 18 18 8 8 13 23 17 23 35 32 34 33 31 36 37 29
29 26 28 28 29 30 29 29 29 33 30 24 24 23 22 22 20 20 19 18 20 19 18 21 24 24 22 19 23 29 25 22 36 32 32 26 29 25
28 26 26 27 28 27 26 22 24 27 28 23 19 24 27 24 20 21 19 18 18 17 19 21 26 24 15 10 18 10 15 18 19 28 25 18 36 23
28 20 22 25 26 25 24 23 22 22 23 23 16 22 30 24 22 24 20 20 21 18 16 16 17 19 14 7 9 13 19 14 14 11 13 13 7 8
29 24 19 23 24 23 24 23 24 27 25 25 17 17 27 23 24 23 22 20 21 24 10 19 18 15 18 13 6 11 10 8 4 19 13 6 14 15
Wind_Direction_500mb
281 279 294 294 307 304 304 306 308 306 305 295 299 301 309 279 266 236 245 265 265 260 260 266 261 255 253 251 252 254 259 263 262 258 254 253 252 252
314 321 317 310 307 305 310 298 288 284 279 302 305 306 291 287 294 295 279 275 263 261 262 266 269 271 265 260 259 257 256 259 262 262 258 255 253 252
306 302 299 305 303 299 293 291 290 284 274 288 296 297 290 295 290 284 278 267 265 267 268 269 270 272 273 271 266 261 256 255 258 260 261 256 253 253
306 305 302 299 299 293 290 291 287 284 286 291 291 284 282 283 279 271 266 263 262 264 270 271 269 268 266 267 270 268 263 257 256 257 259 257 253 251
292 296 296 295 293 289 287 290 288 286 283 286 288 283 278 276 279 277 271 269 268 267 264 265 267 268 269 270 273 276 275 268 262 260 257 257 258 256
302 301 288 289 292 290 281 282 281 278 276 277 279 286 284 283 279 275 269 271 273 269 264 260 260 263 266 268 268 266 271 275 272 265 260 258 258 258
304 304 295 290 288 289 290 289 284 286 283 277 281 280 278 280 282 278 268 268 263 261 262 256 256 257 258 262 262 263 269 270 266 267 264 259 256 256
306 306 303 297 294 295 297 284 268 268 274 279 283 281 279 276 273 279 281 278 279 266 273 273 268 267 267 266 264 265 267 267 268 267 265 259 256 255
304 298 294 294 287 292 291 288 288 290 291 286 282 279 281 283 278 277 273 275 274 275 273 271 271 271 269 270 269 267 261 260 265 268 267 265 264 260
302 297 293 292 294 295 294 290 288 284 284 286 284 286 284 287 272 271 274 278 273 273 264 270 269 268 271 273 274 272 271 267 265 269 270 265 264 265
326 318 311 305 303 297 289 288 287 286 285 282 280 274 276 274 277 278 277 279 277 275 269 268 267 267 272 274 275 275 272 270 269 268 268 270 265 263
318 314 311 308 307 303 301 299 292 285 287 292 282 276 278 281 278 273 275 273 274 276 274 258 265 270 277 279 278 277 274 272 270 269 265 263 262 262
317 314 313 312 301 302 304 300 297 294 289 285 288 288 291 292 290 278 275 276 273 272 286 266 262 264 265 271 274 276 278 287 283 281 271 267 270 263
313 315 310 306 308 308 311 314 309 298 294 294 305 306 301 300 305 305 297 296 288 283 280 272 266 272 265 267 267 271 273 279 282 276 277 277 277 270
319 317 327 336 323 323 328 324 314 316 320 308 303 305 302 300 299 302 299 304 293 293 281 263 267 272 270 268 271 273 266 270 272 281 282 270 274 271
331 344 350 330 331 341 345 350 349 337 321 319 314 319 322 314 311 355 326 333 299 309 300 286 276 271 273 273 271 268 264 269 280 274 286 293 289 266
343 353 340 344 354 360 0 356 359 356 343 331 335 333 326 321 314 326 350 341 327 322 321 310 293 280 276 278 271 265 267 268 270 276 278 273 282 274
351 343 347 351 359 6 1 359 8 6 2 1 357 343 339 336 343 335 324 325 353 335 326 314 308 281 260 281 275 282 267 262 267 277 276 266 265 272
342 347 348 355 356 357 357 2 7 7 1 8 4 357 348 355 0 342 346 346 328 322 353 350 339 337 310 345 320 277 253 249 259 264 273 279 241 261
343 349 349 355 355 353 354 1 9 5 2 8 11 9 11 9 356 349 354 354 352 351 344 337 328 324 318 311 311 306 305 283 255 268 273 277 248 255
341 351 353 353 348 349 354 1 8 4 357 4 18 23 18 11 8 360 355 1 353 353 349 347 348 349 350 340 327 288 336 331 284 265 258 268 233 243
340 346 347 343 343 349 355 1 2 357 357 4 29 31 27 11 14 6 1 360 353 346 347 348 342 351 346 326 345 345 340 14 19 348 266 244 207 210
345 351 350 346 353 356 0 3 3 5 2 9 31 33 27 14 19 15 3 5 359 354 335 11 2 1 2 19 14 353 22 0 65 354 354 263 252 252
Wind_Speed_850mb
32 24 30 28 35 38 32 32 25 31 45 38 34 31 34 22 37 25 27 27 39 47 56 60 57 59 61 62 63 62 61 60 59 57 56 56 56 59
33 37 36 38 36 41 41 42 38 38 44 45 39 42 35 34 33 27 32 30 48 46 45 52 56 62 60 60 62 65 66 65 65 64 60 57 58 59
34 37 39 43 42 44 40 42 44 46 58 55 51 45 43 40 41 43 42 46 51 54 58 63 60 57 54 55 61 67 71 71 71 71 69 64 61 61
37 41 45 44 44 47 47 45 46 47 51 58 49 47 50 47 47 46 50 52 49 47 45 48 51 51 50 54 61 61 63 69 74 76 75 76 71 68
46 50 51 51 53 53 49 48 48 51 53 57 61 56 54 53 55 54 51 50 51 53 64 61 63 67 71 73 73 69 67 70 72 74 79 79 80 77
71 59 53 52 53 53 51 54 58 56 53 55 56 51 48 49 52 55 46 41 46 46 49 53 47 46 53 57 58 59 66 66 71 76 80 81 82 83
74 68 50 47 51 53 58 54 49 55 57 57 56 52 47 42 41 42 45 49 54 52 53 54 62 60 51 49 52 57 58 55 58 58 66 74 80 83
75 58 46 52 46 46 43 43 44 49 58 57 67 67 68 67 64 55 55 57 65 63 64 67 63 70 74 75 67 59 60 70 63 61 61 62 66 76
52 51 55 52 52 52 52 55 56 58 59 57 58 58 58 50 48 52 56 60 64 62 58 61 57 63 58 61 62 62 64 73 78 78 67 65 68 68
49 54 53 56 56 54 51 54 51 49 50 51 56 59 56 53 50 56 57 62 64 60 57 67 64 65 62 65 64 65 65 69 70 66 74 82 80 78
56 45 46 52 50 50 52 57 55 52 46 49 51 59 56 53 60 61 68 69 75 74 72 60 59 57 56 57 54 56 58 58 60 64 66 67 70 75
61 56 53 49 49 41 35 35 45 48 54 62 55 57 58 60 53 52 50 57 64 66 58 53 67 60 61 57 48 32 39 45 46 48 50 54 58 62
62 57 50 46 47 55 56 57 58 52 49 48 45 34 30 33 35 37 38 44 49 56 45 42 54 55 59 56 47 46 45 43 39 32 35 37 38 48
54 52 52 55 46 44 39 30 32 36 34 23 26 32 31 31 30 27 30 36 40 52 44 39 44 30 40 44 45 43 35 34 35 39 40 40 39 42
50 48 34 32 35 32 28 29 26 23 26 24 26 29 27 23 25 27 22 28 31 28 29 33 38 39 42 48 45 39 30 37 32 36 38 37 40 37
45 29 30 32 32 21 25 25 22 20 19 20 23 21 20 20 22 18 20 24 24 21 19 20 26 33 40 43 46 54 50 41 41 44 31 35 33 33
33 30 31 33 31 26 28 23 23 24 21 18 19 20 20 21 18 18 21 21 22 18 19 23 21 31 31 33 37 40 42 42 37 38 37 36 29 23
29 28 30 32 32 31 33 30 23 28 28 23 21 21 22 23 20 16 19 19 22 18 21 16 25 28 29 27 25 27 31 36 33 33 30 34 33 23
31 27 29 30 31 30 32 31 33 33 30 24 25 23 22 15 21 22 21 20 20 17 18 18 8 8 13 23 17 23 35 32 34 33 31 36 37 29
29 26 28 28 29 30 29 29 29 33 30 24 24 23 22 22 20 20 19 18 20 19 18 21 24 24 22 19 23 29 25 22 36 32 32 26 29 25
28 26 26 27 28 27 26 22 24 27 28 23 19 24 27 24 20 21 19 18 18 17 19 21 26 24 15 10 18 10 15 18 19 28 25 18 36 23
28 20 22 25 26 25 24 23 22 22 23 23 16 22 30 24 22 24 20 20 21 18 16 16 17 19 14 7 9 13 19 14 14 11 13 13 7 8
29 24 19 23 24 23 24 23 24 27 25 25 17 17 27 23 24 23 22 20 21 24 10 19 18 15 18 13 6 11 10 8 4 19 13 6 14 15
Wind_Direction_850mb
281 279 294 294 307 304 304 306 308 306 305 295 299 301 309 279 266 236 245 265 265 260 260 266 261 255 253 251 252 254 259 263 262 258 254 253 252 252
314 321 317 310 307 305 310 298 288 284 279 302 305 306 291 287 294 295 279 275 263 261 262 266 269 271 265 260 259 257 256 259 262 262 258 255 253 252
306 302 299 305 303 299 293 291 290 284 274 288 296 297 290 295 290 284 278 267 265 267 268 269 270 272 273 271 266 261 256 255 258 260 261 256 253 253
306 305 302 299 299 293 290 291 287 284 286 291 291 284 282 283 279 271 266 263 262 264 270 271 269 268 266 267 270 268 263 257 256 257 259 257 253 251
292 296 296 295 293 289 287 290 288 286 283 286 288 283 278 276 279 277 271 269 268 267 264 265 267 268 269 270 273 276 275 268 262 260 257 257 258 256
302 301 288 289 292 290 281 282 281 278 276 277 279 286 284 283 279 275 269 271 273 269 264 260 260 263 266 268 268 266 271 275 272 265 260 258 258 258
304 304 295 290 288 289 290 289 284 286 283 277 281 280 278 280 282 278 268 268 263 261 262 256 256 257 258 262 262 263 269 270 266 267 264 259 256 256
306 306 303 297 294 295 297 284 268 268 274 279 283 281 279 276 273 279 281 278 279 266 273 273 268 267 267 266 264 265 267 267 268 267 265 259 256 255
304 298 294 294 287 292 291 288 288 290 291 286 282 279 281 283 278 277 273 275 274 275 273 271 271 271 269 270 269 267 261 260 265 268 267 265 264 260
302 297 293 292 294 295 294 290 288 284 284 286 284 286 284 287 272 271 274 278 273 273 264 270 269 268 271 273 274 272 271 267 265 269 270 265 264 265
326 318 311 305 303 297 289 288 287 286 285 282 280 274 276 274 277 278 277 279 277 275 269 268 267 267 272 274 275 275 272 270 269 268 268 270 265 263
318 314 311 308 307 303 301 299 292 285 287 292 282 276 278 281 278 273 275 273 274 276 274 258 265 270 277 279 278 277 274 272 270 269 265 263 262 262
317 314 313 312 301 302 304 300 297 294 289 285 288 288 291 292 290 278 275 276 273 272 286 266 262 264 265 271 274 276 278 287 283 281 271 267 270 263
313 315 310 306 308 308 311 314 309 298 294 294 305 306 301 300 305 305 297 296 288 283 280 272 266 272 265 267 267 271 273 279 282 276 277 277 277 270
319 317 327 336 323 323 328 324 314 316 320 308 303 305 302 300 299 302 299 304 293 293 281 263 267 272 270 268 271 273 266 270 272 281 282 270 274 271
331 344 350 330 331 341 345 350 349 337 321 319 314 319 322 314 311 355 326 333 299 309 300 286 276 271 273 273 271 268 264 269 280 274 286 293 289 266
343 353 340 344 354 360 0 356 359 356 343 331 335 333 326 321 314 326 350 341 327 322 321 310 293 280 276 278 271 265 267 268 270 276 278 273 282 274
351 343 347 351 359 6 1 359 8 6 2 1 357 343 339 336 343 335 324 325 353 335 326 314 308 281 260 281 275 282 267 262 267 277 276 266 265 272
342 347 348 355 356 357 357 2 7 7 1 8 4 357 348 355 0 342 346 346 328 322 353 350 339 337 310 345 320 277 253 249 259 264 273 279 241 261
343 349 349 355 355 353 354 1 9 5 2 8 11 9 11 9 356 349 354 354 352 351 344 337 328 324 318 311 311 306 305 283 255 268 273 277 248 255
341 351 353 353 348 349 354 1 8 4 357 4 18 23 18 11 8 360 355 1 353 353 349 347 348 349 350 340 327 288 336 331 284 265 258 268 233 243
340 346 347 343 343 349 355 1 2 357 357 4 29 31 27 11 14 6 1 360 353 346 347 348 342 351 346 326 345 345 340 14 19 348 266 244 207 210
345 351 350 346 353 356 0 3 3 5 2 9 31 33 27 14 19 15 3 5 359 354 335 11 2 1 2 19 14 353 22 0 65 354 354 263 252 252